NKS221 KATL-KMCO

Flight info

Callsign NKS221
Flight time 1h 14m
Altitude 33000
Route SMLTZ3 WALET ZJAYX GRNCH5
Aircraft A21N/M-SDE2E3FGHIRWXY/LB1

Departure

Time 2026-05-04 23:46
Airport Hartsfield Jackson Atlanta International Airport (KATL)

Arrival

Time 2026-05-05 01:01
Airport Orlando International Airport (KMCO)
Time Latitude Longitude Altitude Speed Heading
2026-05-04 23:25 33.63750 -84.42984 1026 ft 0 kts 90°
2026-05-04 23:34 33.63750 -84.43000 1026 ft 2 kts 90°
2026-05-04 23:34 33.63750 -84.43018 1026 ft 2 kts 90°
2026-05-04 23:34 33.63751 -84.43037 1026 ft 2 kts 111°
2026-05-04 23:35 33.63759 -84.43052 1026 ft 2 kts 135°
2026-05-04 23:35 33.63771 -84.43062 1026 ft 2 kts 159°
2026-05-04 23:35 33.63782 -84.43065 1026 ft 0 kts 178°
2026-05-04 23:35 33.63788 -84.43065 1026 ft 1 kts 182°
2026-05-04 23:36 33.63790 -84.43065 1026 ft 0 kts 181°
2026-05-04 23:40 33.63784 -84.43065 1025 ft 2 kts 181°
2026-05-04 23:40 33.63729 -84.43067 1025 ft 12 kts 180°
2026-05-04 23:40 33.63670 -84.42996 1025 ft 14 kts 104°
2026-05-04 23:41 33.63663 -84.42873 1025 ft 15 kts 89°
2026-05-04 23:41 33.63660 -84.42752 1025 ft 16 kts 95°
2026-05-04 23:41 33.63655 -84.42614 1025 ft 16 kts 90°
2026-05-04 23:41 33.63653 -84.42469 1025 ft 17 kts 92°
2026-05-04 23:42 33.63651 -84.42320 1025 ft 17 kts 80°
2026-05-04 23:42 33.63655 -84.42168 1025 ft 18 kts 91°
2026-05-04 23:42 33.63654 -84.42017 1025 ft 18 kts 91°
2026-05-04 23:42 33.63653 -84.41857 1025 ft 19 kts 90°
2026-05-04 23:43 33.63654 -84.41742 1025 ft 11 kts 89°
2026-05-04 23:43 33.63654 -84.41648 1025 ft 12 kts 90°
2026-05-04 23:43 33.63653 -84.41540 1025 ft 13 kts 91°
2026-05-04 23:43 33.63651 -84.41428 1025 ft 14 kts 92°
2026-05-04 23:44 33.63651 -84.41308 1025 ft 15 kts 89°
2026-05-04 23:44 33.63653 -84.41176 1025 ft 16 kts 89°
2026-05-04 23:44 33.63637 -84.41062 1025 ft 12 kts 149°
2026-05-04 23:44 33.63552 -84.41043 1025 ft 13 kts 178°
2026-05-04 23:45 33.63487 -84.41046 1025 ft 3 kts 211°
2026-05-04 23:45 33.63472 -84.41086 1025 ft 6 kts 260°
2026-05-04 23:45 33.63471 -84.41144 1025 ft 7 kts 270°
2026-05-04 23:45 33.63472 -84.41384 1025 ft 67 kts 270°
2026-05-04 23:46 33.63471 -84.42268 1026 ft 141 kts 271°
2026-05-04 23:46 33.63480 -84.43569 1176 ft 182 kts 268°
2026-05-04 23:46 33.63454 -84.44997 1900 ft 182 kts 269°
2026-05-04 23:46 33.63472 -84.46423 2838 ft 177 kts 268°
2026-05-04 23:47 33.63477 -84.47894 3572 ft 185 kts 266°
2026-05-04 23:47 33.63470 -84.49495 4172 ft 201 kts 267°
2026-05-04 23:47 33.63463 -84.51233 4773 ft 218 kts 268°
2026-05-04 23:47 33.63460 -84.53072 5289 ft 238 kts 269°
2026-05-04 23:48 33.63459 -84.55133 5657 ft 256 kts 269°
2026-05-04 23:48 33.63459 -84.57332 6117 ft 270 kts 269°
2026-05-04 23:48 33.63459 -84.59519 6793 ft 274 kts 269°
2026-05-04 23:48 33.63461 -84.61795 7538 ft 275 kts 269°
2026-05-04 23:49 33.63372 -84.64013 8209 ft 277 kts 257°
2026-05-04 23:49 33.62548 -84.66073 8902 ft 277 kts 229°
2026-05-04 23:49 33.61046 -84.67484 9653 ft 276 kts 211°
2026-05-04 23:49 33.59370 -84.68618 10273 ft 280 kts 208°
2026-05-04 23:50 33.57521 -84.69406 10843 ft 286 kts 190°
2026-05-04 23:50 33.55520 -84.69415 11463 ft 292 kts 174°
2026-05-04 23:50 33.53504 -84.69043 12025 ft 296 kts 172°
2026-05-04 23:50 33.51464 -84.68627 12597 ft 300 kts 172°
2026-05-04 23:51 33.49386 -84.68212 13156 ft 304 kts 172°
2026-05-04 23:51 33.47288 -84.67805 13725 ft 307 kts 173°
2026-05-04 23:51 33.45175 -84.67400 14299 ft 309 kts 173°
2026-05-04 23:51 33.43049 -84.66873 14771 ft 318 kts 164°
2026-05-04 23:52 33.41031 -84.65643 15017 ft 335 kts 146°
2026-05-04 23:52 33.39793 -84.64373 15201 ft 345 kts 139°
2026-05-04 23:52 33.38344 -84.62670 15402 ft 357 kts 137°
2026-05-04 23:52 33.36575 -84.60536 15766 ft 365 kts 137°
2026-05-04 23:53 33.34835 -84.58436 16269 ft 368 kts 137°
2026-05-04 23:53 33.34123 -84.57581 16490 ft 368 kts 137°
2026-05-04 23:53 33.32307 -84.55409 17010 ft 371 kts 137°
2026-05-04 23:53 33.30470 -84.53226 17496 ft 374 kts 138°
2026-05-04 23:54 33.28617 -84.51035 17997 ft 377 kts 138°
2026-05-04 23:54 33.26858 -84.48963 18442 ft 380 kts 138°
2026-05-04 23:54 33.24965 -84.46736 18916 ft 383 kts 138°
2026-05-04 23:54 33.23218 -84.44680 19317 ft 387 kts 138°
2026-05-04 23:55 33.21295 -84.42419 19754 ft 391 kts 137°
2026-05-04 23:55 33.19353 -84.40138 20193 ft 394 kts 137°
2026-05-04 23:55 33.15420 -84.35517 20993 ft 401 kts 137°
2026-05-04 23:56 33.13426 -84.33170 21381 ft 405 kts 138°
2026-05-04 23:56 33.11414 -84.30795 21758 ft 408 kts 138°
2026-05-04 23:56 33.09492 -84.28532 22105 ft 411 kts 138°
2026-05-04 23:56 33.07449 -84.26133 22471 ft 414 kts 138°
2026-05-04 23:57 33.05386 -84.23717 22819 ft 418 kts 138°
2026-05-04 23:57 33.03303 -84.21285 23158 ft 421 kts 138°
2026-05-04 23:57 33.01142 -84.18925 23524 ft 422 kts 144°
2026-05-04 23:57 32.98708 -84.16997 23884 ft 420 kts 155°
2026-05-04 23:58 32.96048 -84.15588 24249 ft 418 kts 164°
2026-05-04 23:58 32.93302 -84.14444 24600 ft 419 kts 165°
2026-05-04 23:58 32.90531 -84.13339 24950 ft 421 kts 166°
2026-05-04 23:58 32.87729 -84.12221 25242 ft 424 kts 166°
2026-05-04 23:59 32.84915 -84.11089 25546 ft 427 kts 166°
2026-05-04 23:59 32.82084 -84.09943 25852 ft 429 kts 165°
2026-05-04 23:59 32.79251 -84.08786 26176 ft 431 kts 165°
2026-05-04 23:59 32.76652 -84.07722 26466 ft 433 kts 165°
2026-05-05 00:00 32.73797 -84.06553 26746 ft 435 kts 165°
2026-05-05 00:00 32.71887 -84.05769 26924 ft 437 kts 165°
2026-05-05 00:00 32.68045 -84.04194 27264 ft 440 kts 165°
2026-05-05 00:00 32.65264 -84.03053 27539 ft 442 kts 165°
2026-05-05 00:01 32.62357 -84.01864 27844 ft 443 kts 165°
2026-05-05 00:01 32.59518 -84.00702 28133 ft 444 kts 165°
2026-05-05 00:01 32.56850 -83.99607 28396 ft 446 kts 165°
2026-05-05 00:01 32.53913 -83.98406 28676 ft 447 kts 166°
2026-05-05 00:02 32.50966 -83.97197 28911 ft 450 kts 165°
2026-05-05 00:02 32.48003 -83.95989 29180 ft 451 kts 165°
2026-05-05 00:02 32.45030 -83.94776 29443 ft 453 kts 165°
2026-05-05 00:02 32.42049 -83.93555 29688 ft 455 kts 165°
2026-05-05 00:03 32.39081 -83.92160 29901 ft 460 kts 160°
2026-05-05 00:03 32.36195 -83.90485 30145 ft 465 kts 155°
2026-05-05 00:03 32.33405 -83.88513 30374 ft 469 kts 150°
2026-05-05 00:03 32.30798 -83.86335 30567 ft 474 kts 147°
2026-05-05 00:04 32.28294 -83.84117 30736 ft 477 kts 146°
2026-05-05 00:04 32.25640 -83.81740 30897 ft 480 kts 147°
2026-05-05 00:04 32.22976 -83.79354 31078 ft 482 kts 147°
2026-05-05 00:04 32.20298 -83.76966 31300 ft 484 kts 147°
2026-05-05 00:05 32.17627 -83.74597 31451 ft 487 kts 147°
2026-05-05 00:05 32.14886 -83.72170 31608 ft 490 kts 147°
2026-05-05 00:05 32.11363 -83.69054 31908 ft 491 kts 147°
2026-05-05 00:05 32.09541 -83.67447 32028 ft 492 kts 147°
2026-05-05 00:06 32.06870 -83.65091 32160 ft 495 kts 147°
2026-05-05 00:06 32.04105 -83.62658 32316 ft 497 kts 147°
2026-05-05 00:06 32.01319 -83.60206 32508 ft 500 kts 148°
2026-05-05 00:06 31.98641 -83.57852 32696 ft 501 kts 147°
2026-05-05 00:07 31.95850 -83.55397 32865 ft 503 kts 147°
2026-05-05 00:07 31.90207 -83.50446 33028 ft 510 kts 147°
2026-05-05 00:08 31.84499 -83.45455 33034 ft 509 kts 148°
2026-05-05 00:08 31.78813 -83.40486 33036 ft 509 kts 147°
2026-05-05 00:09 31.73132 -83.35509 33051 ft 510 kts 147°
2026-05-05 00:09 31.67423 -83.30510 33050 ft 509 kts 149°
2026-05-05 00:10 31.61445 -83.26056 33058 ft 503 kts 157°
2026-05-05 00:10 31.55193 -83.22479 33050 ft 499 kts 161°
2026-05-05 00:11 31.49102 -83.19202 33030 ft 500 kts 162°
2026-05-05 00:11 31.42766 -83.15780 33037 ft 502 kts 161°
2026-05-05 00:12 31.36429 -83.12347 33035 ft 502 kts 161°
2026-05-05 00:12 31.30089 -83.08910 33031 ft 503 kts 161°
2026-05-05 00:13 31.23738 -83.05473 33038 ft 502 kts 162°
2026-05-05 00:13 31.17409 -83.02050 33042 ft 495 kts 162°
2026-05-05 00:14 31.11367 -82.98782 33030 ft 485 kts 162°
2026-05-05 00:14 31.05217 -82.95474 33033 ft 487 kts 162°
2026-05-05 00:15 30.99071 -82.92167 33040 ft 487 kts 162°
2026-05-05 00:15 30.92903 -82.88857 33051 ft 487 kts 162°
2026-05-05 00:16 30.86717 -82.85544 33050 ft 488 kts 162°
2026-05-05 00:16 30.80553 -82.82253 33045 ft 487 kts 162°
2026-05-05 00:17 30.74393 -82.78962 32758 ft 488 kts 162°
2026-05-05 00:17 30.71459 -82.77394 32563 ft 487 kts 162°
2026-05-05 00:17 30.68377 -82.75747 32412 ft 487 kts 162°
2026-05-05 00:17 30.65299 -82.74104 32273 ft 486 kts 162°
2026-05-05 00:18 30.62220 -82.72462 32151 ft 486 kts 162°
2026-05-05 00:18 30.59207 -82.70635 31993 ft 493 kts 154°
2026-05-05 00:18 30.56317 -82.68470 31792 ft 495 kts 152°
2026-05-05 00:18 30.53476 -82.66218 31627 ft 495 kts 150°
2026-05-05 00:19 30.50651 -82.63956 31509 ft 493 kts 151°
2026-05-05 00:19 30.47823 -82.61707 31292 ft 494 kts 151°
2026-05-05 00:19 30.44985 -82.59469 31100 ft 492 kts 151°
2026-05-05 00:19 30.42145 -82.57241 30869 ft 493 kts 152°
2026-05-05 00:20 30.39308 -82.55026 30736 ft 492 kts 152°
2026-05-05 00:20 30.36471 -82.52816 30612 ft 493 kts 152°
2026-05-05 00:20 30.33632 -82.50606 30513 ft 492 kts 152°
2026-05-05 00:21 30.27943 -82.46184 30196 ft 491 kts 152°
2026-05-05 00:21 30.25102 -82.43976 30034 ft 491 kts 152°
2026-05-05 00:21 30.22271 -82.41777 29880 ft 490 kts 152°
2026-05-05 00:21 30.19436 -82.39583 29660 ft 491 kts 152°
2026-05-05 00:22 30.16623 -82.37399 29367 ft 484 kts 152°
2026-05-05 00:22 30.13851 -82.35249 29010 ft 476 kts 152°
2026-05-05 00:22 30.11113 -82.33134 28675 ft 471 kts 152°
2026-05-05 00:22 30.08395 -82.31024 28448 ft 470 kts 152°
2026-05-05 00:23 30.05696 -82.28922 28238 ft 467 kts 152°
2026-05-05 00:23 30.03005 -82.26826 28021 ft 466 kts 152°
2026-05-05 00:23 30.00328 -82.24743 27782 ft 464 kts 152°
2026-05-05 00:23 29.97649 -82.22662 27527 ft 463 kts 152°
2026-05-05 00:24 29.94925 -82.20737 27298 ft 456 kts 157°
2026-05-05 00:24 29.92099 -82.19135 27047 ft 450 kts 163°
2026-05-05 00:24 29.89189 -82.17877 26830 ft 442 kts 169°
2026-05-05 00:24 29.86240 -82.16966 26601 ft 434 kts 175°
2026-05-05 00:25 29.83277 -82.16331 26426 ft 431 kts 177°
2026-05-05 00:25 29.80304 -82.15758 26285 ft 429 kts 178°
2026-05-05 00:25 29.77347 -82.15194 26132 ft 429 kts 178°
2026-05-05 00:25 29.74491 -82.14642 25896 ft 427 kts 177°
2026-05-05 00:26 29.71749 -82.14104 25676 ft 426 kts 177°
2026-05-05 00:26 29.68815 -82.13524 25431 ft 425 kts 177°
2026-05-05 00:26 29.65894 -82.12944 25159 ft 425 kts 177°
2026-05-05 00:26 29.62982 -82.12365 24928 ft 424 kts 176°
2026-05-05 00:27 29.60075 -82.11786 24708 ft 422 kts 176°
2026-05-05 00:27 29.57180 -82.11210 24502 ft 421 kts 176°
2026-05-05 00:27 29.54299 -82.10636 24343 ft 419 kts 176°
2026-05-05 00:27 29.51436 -82.10067 24104 ft 416 kts 176°
2026-05-05 00:28 29.48586 -82.09501 23846 ft 415 kts 176°
2026-05-05 00:28 29.45741 -82.08939 23759 ft 413 kts 176°
2026-05-05 00:28 29.42903 -82.08378 23443 ft 414 kts 176°
2026-05-05 00:28 29.40067 -82.07818 23046 ft 411 kts 176°
2026-05-05 00:29 29.37255 -82.07264 22624 ft 408 kts 175°
2026-05-05 00:29 29.34468 -82.06712 22180 ft 405 kts 175°
2026-05-05 00:29 29.31716 -82.06000 21742 ft 406 kts 168°
2026-05-05 00:29 29.29063 -82.04897 21316 ft 406 kts 160°
2026-05-05 00:30 29.26532 -82.03439 20877 ft 406 kts 155°
2026-05-05 00:30 29.24073 -82.01878 20462 ft 403 kts 154°
2026-05-05 00:30 29.21641 -82.00312 20044 ft 400 kts 154°
2026-05-05 00:30 29.19222 -81.98763 19633 ft 397 kts 154°
2026-05-05 00:31 29.16808 -81.97230 19223 ft 394 kts 154°
2026-05-05 00:31 29.14404 -81.95714 18799 ft 391 kts 154°
2026-05-05 00:31 29.12032 -81.94223 18370 ft 388 kts 154°
2026-05-05 00:31 29.09671 -81.92743 17944 ft 385 kts 154°
2026-05-05 00:32 29.07389 -81.91138 17514 ft 385 kts 148°
2026-05-05 00:32 29.05267 -81.89273 17084 ft 384 kts 141°
2026-05-05 00:32 29.03295 -81.87217 16658 ft 382 kts 138°
2026-05-05 00:32 29.01370 -81.85121 16233 ft 379 kts 138°
2026-05-05 00:33 28.99479 -81.83040 15870 ft 374 kts 136°
2026-05-05 00:33 28.97701 -81.80871 15853 ft 372 kts 132°
2026-05-05 00:33 28.96060 -81.78581 15480 ft 373 kts 129°
2026-05-05 00:33 28.94489 -81.76241 15078 ft 370 kts 128°
2026-05-05 00:34 28.92934 -81.73904 14697 ft 367 kts 128°
2026-05-05 00:34 28.91383 -81.71585 14279 ft 364 kts 128°
2026-05-05 00:34 28.89830 -81.69275 13878 ft 361 kts 128°
2026-05-05 00:34 28.88291 -81.67006 13490 ft 358 kts 128°
2026-05-05 00:35 28.86761 -81.64757 13074 ft 356 kts 128°
2026-05-05 00:35 28.85255 -81.62538 12673 ft 352 kts 128°
2026-05-05 00:35 28.83762 -81.60332 12295 ft 350 kts 128°
2026-05-05 00:35 28.82343 -81.58236 12037 ft 340 kts 128°
2026-05-05 00:36 28.80927 -81.56146 11993 ft 325 kts 129°
2026-05-05 00:36 28.79463 -81.54266 11930 ft 312 kts 133°
2026-05-05 00:36 28.77892 -81.52619 11740 ft 301 kts 149°
2026-05-05 00:36 28.76031 -81.51610 11493 ft 294 kts 161°
2026-05-05 00:37 28.74129 -81.50800 11193 ft 288 kts 161°
2026-05-05 00:37 28.72269 -81.49990 10940 ft 283 kts 160°
2026-05-05 00:37 28.70464 -81.49150 10711 ft 277 kts 159°
2026-05-05 00:37 28.68703 -81.48291 10444 ft 272 kts 159°
2026-05-05 00:38 28.66974 -81.47426 10158 ft 269 kts 158°
2026-05-05 00:38 28.65267 -81.46559 9847 ft 267 kts 158°
2026-05-05 00:38 28.63576 -81.45695 9533 ft 265 kts 158°
2026-05-05 00:38 28.61899 -81.44840 9202 ft 263 kts 158°
2026-05-05 00:39 28.60230 -81.43989 8880 ft 261 kts 158°
2026-05-05 00:39 28.58574 -81.43145 8721 ft 261 kts 158°
2026-05-05 00:39 28.56859 -81.42498 8597 ft 258 kts 172°
2026-05-05 00:39 28.55067 -81.42347 8268 ft 257 kts 181°
2026-05-05 00:40 28.53288 -81.42360 7958 ft 255 kts 182°
2026-05-05 00:40 28.51521 -81.42389 7661 ft 252 kts 182°
2026-05-05 00:40 28.49772 -81.42412 7369 ft 251 kts 181°
2026-05-05 00:40 28.48024 -81.42420 7079 ft 249 kts 181°
2026-05-05 00:41 28.46285 -81.42423 6794 ft 248 kts 181°
2026-05-05 00:41 28.44564 -81.42426 6511 ft 247 kts 181°
2026-05-05 00:41 28.42851 -81.42428 6230 ft 245 kts 181°
2026-05-05 00:41 28.41143 -81.42431 5947 ft 245 kts 180°
2026-05-05 00:42 28.39442 -81.42435 5660 ft 243 kts 180°
2026-05-05 00:42 28.37740 -81.42438 5377 ft 243 kts 179°
2026-05-05 00:42 28.36048 -81.42441 5096 ft 242 kts 179°
2026-05-05 00:42 28.34358 -81.42441 4900 ft 242 kts 178°
2026-05-05 00:43 28.32664 -81.42438 4542 ft 244 kts 178°
2026-05-05 00:43 28.30953 -81.42430 4149 ft 246 kts 178°
2026-05-05 00:43 28.29244 -81.42422 3866 ft 243 kts 177°
2026-05-05 00:43 28.27571 -81.42412 3668 ft 236 kts 176°
2026-05-05 00:44 28.25933 -81.42284 3487 ft 233 kts 160°
2026-05-05 00:44 28.24571 -81.41390 3314 ft 225 kts 129°
2026-05-05 00:44 28.23883 -81.39845 3141 ft 221 kts 97°
2026-05-05 00:44 28.23879 -81.38105 3001 ft 221 kts 85°
2026-05-05 00:45 28.24055 -81.36372 2993 ft 222 kts 83°
2026-05-05 00:45 28.24260 -81.34640 2989 ft 221 kts 83°
2026-05-05 00:45 28.24475 -81.32907 2987 ft 222 kts 79°
2026-05-05 00:45 28.25180 -81.31362 2978 ft 225 kts 47°
2026-05-05 00:46 28.27082 -81.30383 2819 ft 235 kts
2026-05-05 00:46 28.28179 -81.30507 2620 ft 239 kts 350°
2026-05-05 00:46 28.29780 -81.31055 2314 ft 240 kts 345°
2026-05-05 00:46 28.31349 -81.31687 2005 ft 235 kts 344°
2026-05-05 00:47 28.32857 -81.32248 1736 ft 219 kts 351°
2026-05-05 00:47 28.34277 -81.32519 1591 ft 195 kts 360°
2026-05-05 00:47 28.35587 -81.32610 1297 ft 181 kts
2026-05-05 00:47 28.36793 -81.32624 1031 ft 165 kts
2026-05-05 00:48 28.37896 -81.32628 798 ft 151 kts
2026-05-05 00:48 28.38948 -81.32636 611 ft 150 kts
2026-05-05 00:48 28.39995 -81.32646 426 ft 150 kts
2026-05-05 00:48 28.41041 -81.32665 260 ft 150 kts
2026-05-05 00:49 28.42084 -81.32667 126 ft 148 kts
2026-05-05 00:49 28.43205 -81.32684 346 ft 174 kts
2026-05-05 00:49 28.44534 -81.32708 618 ft 211 kts
2026-05-05 00:49 28.46145 -81.32737 1009 ft 248 kts
2026-05-05 00:50 28.47904 -81.32780 1806 ft 252 kts
2026-05-05 00:50 28.49676 -81.32842 2518 ft 260 kts
2026-05-05 00:50 28.51516 -81.32928 2574 ft 263 kts
2026-05-05 00:50 28.53357 -81.33102 2535 ft 267 kts 348°
2026-05-05 00:51 28.55002 -81.34110 2483 ft 273 kts 319°
2026-05-05 00:51 28.56067 -81.35887 2433 ft 274 kts 290°
2026-05-05 00:51 28.56279 -81.37962 2370 ft 260 kts 260°
2026-05-05 00:51 28.55645 -81.39717 2416 ft 248 kts 227°
2026-05-05 00:52 28.54320 -81.40823 2810 ft 229 kts 195°
2026-05-05 00:52 28.52764 -81.41093 2985 ft 230 kts 178°
2026-05-05 00:52 28.51153 -81.41066 2975 ft 231 kts 174°
2026-05-05 00:52 28.50082 -81.41010 2982 ft 231 kts 173°
2026-05-05 00:53 28.48475 -81.40916 2984 ft 231 kts 173°
2026-05-05 00:53 28.46868 -81.40817 2988 ft 230 kts 173°
2026-05-05 00:53 28.45261 -81.40713 2989 ft 231 kts 173°
2026-05-05 00:53 28.43657 -81.40605 2988 ft 230 kts 173°
2026-05-05 00:54 28.42049 -81.40500 2987 ft 230 kts 173°
2026-05-05 00:54 28.40442 -81.40399 2988 ft 231 kts 173°
2026-05-05 00:54 28.38834 -81.40303 2986 ft 230 kts 173°
2026-05-05 00:54 28.37227 -81.40207 2985 ft 230 kts 173°
2026-05-05 00:55 28.35426 -81.40097 2984 ft 230 kts 173°
2026-05-05 00:55 28.33820 -81.39997 2983 ft 230 kts 173°
2026-05-05 00:55 28.32235 -81.39899 2800 ft 226 kts 173°
2026-05-05 00:55 28.30655 -81.39807 2443 ft 228 kts 173°
2026-05-05 00:56 28.29070 -81.39726 2122 ft 227 kts 173°
2026-05-05 00:56 28.27506 -81.39500 1974 ft 224 kts 153°
2026-05-05 00:56 28.26309 -81.38469 1980 ft 215 kts 121°
2026-05-05 00:56 28.25868 -81.36889 1986 ft 212 kts 91°
2026-05-05 00:57 28.25940 -81.35212 1999 ft 214 kts 84°
2026-05-05 00:57 28.26224 -81.33559 1990 ft 215 kts 75°
2026-05-05 00:57 28.26871 -81.32036 1967 ft 218 kts 50°
2026-05-05 00:57 28.28176 -81.31140 1980 ft 226 kts 17°
2026-05-05 00:58 28.29777 -81.31175 2004 ft 236 kts 350°
2026-05-05 00:58 28.31374 -81.31723 1960 ft 241 kts 345°
2026-05-05 00:58 28.32927 -81.32275 1838 ft 225 kts 351°
2026-05-05 00:58 28.34401 -81.32539 1574 ft 204 kts
2026-05-05 00:59 28.35769 -81.32618 1265 ft 189 kts
2026-05-05 00:59 28.37038 -81.32624 999 ft 175 kts
2026-05-05 00:59 28.38204 -81.32628 753 ft 160 kts
2026-05-05 01:00 28.40220 -81.32649 376 ft 149 kts
2026-05-05 01:00 28.41264 -81.32663 199 ft 149 kts
2026-05-05 01:00 28.42284 -81.32677 115 ft 136 kts
2026-05-05 01:00 28.43098 -81.32678 105 ft 85 kts
2026-05-05 01:01 28.43582 -81.32672 105 ft 34 kts
2026-05-05 01:01 28.43707 -81.32606 104 ft 18 kts 47°